Tracking 28790 objects as of 18-Apr-2024
HD Live streaming from Space Station
objects crossing your sky now

SL-8 DEB

Track SL-8 DEB now!
10-day predictions


NORAD ID: 18552
Int'l Code: 1986-086C
Perigee: 819.5 km
Apogee: 859.3 km
Inclination: 82.9 °
Period: 101.6 minutes
Semi major axis: 7210 km
RCS: 0.0125 m2 (small)
Launch date: November 13, 1986
Source: Commonwealth of Independent States (former USSR) (CIS)
Launch site: PLESETSK MISSILE AND SPACE COMPLEX (PKMTR)

Note: This is SATELLITE DEBRIS
Your satellite tracking list
Your tracking list is empty




NASA's NSSDC Master Catalog

Two Line Element Set (TLE):
1 18552U 86086C   24108.24674670  .00010896  00000-0  52956-2 0  9993
2 18552  82.9218  46.3771 0027617 168.9100 352.0292 14.17951906910588
Source of the keplerian elements: AFSPC